Location: Cajon Junction
(34.3117°N, 117.4748°W)
Time: 15:04:53
(UTC+00:00)

CZ-3 Stage 3 - Pass Details

Date: 18 April 2024
Orbit: 459 x 34974 km, 30.5° (Epoch: 19 May)

Event Time Altitude Azimuth Distance (km) Brightness Sun altitude
Exits shadow 12:05:17 11° 273° (W) 4,926 7.1 -14.3°
Maximum altitude 12:14:11 46° 202° (SSW) 1,048 3.9 -12.6°
Drops below altitude 10° 12:17:19 10° 125° (SE) 1,755 5.8 -12.0°
Sets 12:18:50 0° 118° (ESE) 2,487 6.8 -11.7°
